Regional Weather Roundup
Issued by NWS

Home | Current Version | Previous Version | Graphics & Text | Print | Product List | Glossary On
Versions: 1 2 3 4 5 6 7 8 9 10 11 12 13 14 15 16 17 18 19 20 21 22 23 24 25 26 27 28 29 30 31 32 33 34 35 36 37 38 39 40 41 42 43 44 45 46 47 48 49 50
000
ASUS43 KMKX 021721
RWRWI

WISCONSIN REGIONAL WEATHER ROUNDUP
NATIONAL WEATHER SERVICE MILWAUKEE/SULLIVAN WI
1200 PM CDT SUN AUG 02 2015

NOTE: "FAIR" INDICATES FEW OR NO CLOUDS BELOW 12,000 FEET WITH NO
SIGNIFICANT WEATHER AND/OR OBSTRUCTIONS TO VISIBILITY.

WIZ001-002-006>008-014>016-023>028-021800-
NORTHWEST WISCONSIN

CITY           SKY/WX    TMP DP  RH WIND       PRES   REMARKS
SUPERIOR ARPT  PTSUNNY   72  61  68 NW9G16    29.64F
ASHLAND        CLOUDY    73  60  63 W7        29.64R
HAYWARD        PTSUNNY   72  63  73 CALM      29.64S
SIREN          PTSUNNY   76  65  69 N10       29.67R
CUMBERLAND     CLOUDY    73  66  78 SW7       29.64R
RICE LAKE      CLOUDY    74  66  75 W5        29.64R
CHETEK         CLOUDY    75  67  78 CALM      29.62F
LADYSMITH      CLOUDY    74  65  74 CALM      29.64F
EAU CLAIRE     PTSUNNY   80  67  64 SW12      29.58F HX  82
MENOMONIE      CLOUDY    80  67  64 SW12      29.59F HX  82
NEW RICHMOND   CLOUDY    79  64  59 W14G20    29.64R HX  81
OSCEOLA        PTSUNNY   76  66  72 W9        29.67R
$$

WIZ003>005-009-010-017-018-021800-
NORTH CENTRAL WISCONSIN

CITY           SKY/WX    TMP DP  RH WIND       PRES   REMARKS
MANITOWISH WTR CLOUDY    64  64  99 SE3       29.64F
ARBOR VITAE    TSTM      65  61  87 W3G16     29.66R
WOODRUFF       TSTM      65  61  87 W3G16     29.66R
RHINELANDER    CLOUDY    68  64  87 NW7       29.69R
EAGLE RIVER    HVY RAIN  65  62  90 NE15G24   29.68R
LAND O LAKES   LGT RAIN  64  63  94 CALM      29.67R
PHILLIPS       TSTM      67  66  95 E7        29.60F
TOMAHAWK       CLOUDY    70  65  83 NW6       29.65R
MEDFORD        PTSUNNY   75  67  76 SW7G17    29.63R
MERRILL        NOT AVBL
$$

WIZ029-030-035-036-043>047-021800-
CENTRAL WISCONSIN

CITY           SKY/WX    TMP DP  RH WIND       PRES   REMARKS
WAUSAU         PTSUNNY   81  67  62 SW12      29.58F HX  83
MOSINEE        MOSUNNY   81  68  65 SW12      29.62F HX  83
MARSHFIELD     MOSUNNY   85  65  51 SW16G23   29.60F HX  86
STEVENS POINT  MOSUNNY   84  65  52 SW17G26   29.61F HX  85
WAUPACA        MOSUNNY   90  65  44 SW18G26   29.61F HX  91
WAUTOMA        SUNNY     90  67  46 SW17G23   29.63F HX  93
WISC RAPIDS    MOSUNNY   88  65  46 SW17G24   29.63F HX  90
CAMP DOUGLAS   NOT AVBL
$$

WIZ011>013-019>022-031-037>040-048>050-021800-
NORTHEAST WISCONSIN

CITY           SKY/WX    TMP DP  RH WIND       PRES   REMARKS
ANTIGO         CLOUDY    75  67  76 SW7       29.62F
SHAWANO        PTSUNNY   82  69  63 SW7       29.62F HX  86
OCONTO         CLOUDY    80  71  75 SW9       29.60F HX  83
STURGEON BAY   CLOUDY    75  66  73 SW9       29.63F
GREEN BAY      PTSUNNY   83  68  60 SW16G23   29.61F HX  86
MANITOWOC      PTSUNNY   83  69  62 MISG      29.65F HX  86
APPLETON       PTSUNNY   82  66  57 SW15G21   29.65F HX  85
CLINTONVILLE   MOSUNNY   84  64  51 SW16      29.61F HX  86
OSHKOSH        MOSUNNY   85  68  56 SW18G26   29.64F HX  88
$$

WIZ032>034-041-042-053>061-021800-
SOUTHWEST WISCONSIN

CITY           SKY/WX    TMP DP  RH WIND       PRES   REMARKS
LA CROSSE      SUNNY     87  69  54 S13       29.62F HX  91
SPARTA         SUNNY     87  65  48 SW9G17    29.64F HX  88
VIROQUA        SUNNY     83  69  61 SW16      29.69F HX  87
BOSCOBEL       SUNNY     88  68  51 SW13G21   29.71F HX  91
PRAIRIE DU CHI SUNNY     87  65  48 SW10      29.71F HX  89
PLATTEVILLE    SUNNY     83  71  65 SW13G18   29.78S HX  88
$$

WIZ056-057-062-063-064-067-068-021800-
SOUTH CENTRAL WISCONSIN

CITY           SKY/WX    TMP DP  RH WIND       PRES   REMARKS
REEDSBURG      SUNNY     87  70  57 SW10      29.69F HX  91
BARABOO/DELLS  SUNNY     86  65  50 SW13G20   29.69F HX  87
LONE ROCK      SUNNY     87  68  52 SW14      29.71F HX  90
MINERAL POINT  SUNNY     84  68  58 SW14      29.77S HX  87
MADISON        MOSUNNY   84  69  60 SW9G18    29.72F HX  88
MIDDLETON      SUNNY     87  66  49 SW16G22   29.73F HX  89
WATERTOWN      MOSUNNY   83  71  66 SW13G23   29.72F HX  88
MONROE         SUNNY     82  66  57 SW17G25   29.78S HX  85
JANESVILLE     SUNNY     88  66  48 SW18G24   29.75F HX  90
$$

WIZ051-052-058>065-066-070>072-021800-
SOUTHEAST WISCONSIN

CITY           SKY/WX    TMP DP  RH WIND       PRES   REMARKS
MILWAUKEE      PTSUNNY   88  68  51 SW18G28   29.74S HX  91
WAUKESHA       SUNNY     84  66  54 SW15G23   29.75F HX  86
MILWAUKEE/TIMM SUNNY     88  64  45 SW23G33   29.73F HX  89
RACINE         MOSUNNY   87  67  51 W17G26    29.76R HX  90
BURLINGTON     MOSUNNY   85  65  50 W15G26    29.76R HX  87
KENOSHA        MOSUNNY   87  69  54 W20G33    29.76S HX  91
FOND DU LAC    MOSUNNY   85  70  60 SW16G25   29.67F HX  89
SHEBOYGAN      PTSUNNY   85  71  63 SW15G22   29.68F HX  90
WEST BEND      MOSUNNY   84  66  54 SW14G22   29.71F HX  86
JUNEAU         SUNNY     82  70  66 SW17      29.73F HX  86
$$

LSZ147-162-021800-
LAKE SUPERIOR

STATION/POSITION TIME  TEMP    WIND        PRES    WAVE
                       AIR SEA DIR/SP/G            HT/PER
                 (UTC) (F)     (DEG/KT/KT) (MB)    (FT/S)
W MID LAKE BUOY  1650   58 54  310/  4/  4 1001.9R   1/ 3
DEVILS ISLAND    1700   61     280/  7/  9 1002.8R
PORT WING        1620   68     350/  2/  7 1003.0R
SAXON HARBOR     1620   69                 1002.7F
$$

LMZ867-665-643>646-021800-
LAKE MICHIGAN

STATION/POSITION TIME  TEMP    WIND        PRES    WAVE
                       AIR SEA DIR/SP/G            HT/PER
                 (UTC) (F)     (DEG/KT/KT) (MB)    (FT/S)
CHAMBERS ISLAND  1600   72     210/  7/ 16 1003.0F
S GREEN BAY BUOY 1500   69 65  200/ 10/ 14 1006.4
N MID LAKE BUOY  1650   68 69  220/  4/  8 1003.6R   2/ 4
NORTHPORT PIER   1600   70     300/  3/ 15 1001.7F
SISTER BAY       1545   70     120/ 14/ 19   N/A
ALGOMA LAKESHORE 1642          230/ 16/ 19   N/A
KEWAUNEE LAKESHO 1600   71     220/  5/  8 1003.9F
SHEBOYGAN LAKESH 1700   82     230/ 15/ 19 1004.7F
PORT WASHINGTON  1600   84     250/ 13/ 21 1006.8F
ATWATER BUOY     1700   80 56  220/ 17/ 25 1007.6F
MILWAUKEE LAKESH 1700   84     250/ 19/ 26   N/A
KENOSHA   LAKESH 1700   86     240/ 17/ 26 1007.1S
$$

TC  - TEMPERATURE IN CELSIUS
VSB - VISIBILITY IN STATUTE MILES
WCI - WIND CHILL INDEX
HX  - HEAT INDEX




USA.gov is the U.S. government's official web portal to all federal, state and local government web resources and services.